Погода в Чихачеве

Россия / Псковская область     57°17′08″N   29°54′14″E
темп.,
°C
ветер,
м/с
пор.,
м/с
влажн.,
%
обл.,
%
осадки,
мм/ч
давл.,
гПа
погр.,
м
19 сентября, вс
вс1900:00+6всв51374100 0.0 1021744
03:00+5всв51374100 0.0 1021688
06:00+4всв51378100 0.0 1021607
09:00+5всв61471100 0.0 1020643
12:00+8всв61264100 0.0 10201014
15:00+8всв61263100 0.0 10201071
18:00+7всв61264100 0.0 10201062
21:00+6всв61263100 0.0 10201051
20 сентября, пн
пн2000:00+6всв51166100 0.0 10201000
03:00+5всв61379100 0.4 1020918
06:00+4св61490100 1.6 1020957
09:00+5всв61483100 2.7 10191006
12:00+8всв61270100 0.1 10201206
15:00+6св61182100 0.3 10201163
18:00+5всв51195100 0.2 1020979
21:00+4св51197100 0.6 1021964
21 сентября, вт
вт2100:00+4св51097100 0.2 1020856
03:00+3св4996100 0.3 1020742
06:00+3св41097100 0.2 1020633
09:00+3ссв4997100 0.3 1020501
12:00+4ссв4896100 0.0 1020649
15:00+5ссв4892100 0.1 1019848
18:00+4ссв4897100 0.3 1020850
21:00+5ссв3898100 0.6 1020821
22 сентября, ср
ср2200:00+5ссв3798100 0.2 1020833
03:00+5ссв3897100 0.6 1019920
06:00+4с3897100 0.8 1019897
09:00+4с3894100 1.1 1019675
12:00+5с3795100 0.0 1020804
15:00+5с3893100 0.0 1019671
18:00+6с2891100 0.0 1019513
21:00+6ссз2592100 0.0 1017164
23 сентября, чт
чт2300:00+6ссв2791100 0.0 1016260
03:00+6с2494100 0.0 1014155
06:00+5с2594100 0.0 1013173
09:00+6с1289100 0.0 1011131
12:00+8зюз1179100 0.0 1009423
15:00+9ю2275100 0.0 1006563
18:00+8ююв368598 0.0 1004474
21:00+6ююв4994100 0.0 1002350